Location: Newark
(41.8083°N, 72.2500°W)
Time: 22:03:42
(UTC+00:00)

A-11 Canister half - Visible Passes

Search period start: 06 December 2021 00:00
Search period end: 16 December 2021 00:00
Orbit: 1524 x 1685 km, 47.3° (Epoch: 06 December)

Date Brightness Start Highest point End Pass type
(mag) Time Alt. Az. Time Alt. Az. Time Alt. Az.
06 Dec 10.8 06:37:43 21° ENE 06:37:43 21° ENE 06:40:17 10° ENE visible
06 Dec 9.1 08:36:01 64° N 08:36:05 64° N 08:45:58 10° E visible
06 Dec 9.1 10:34:19 20° WNW 10:42:03 84° NNE 10:51:50 10° ESE visible
07 Dec 11.1 06:17:17 15° ENE 06:17:17 15° ENE 06:18:35 10° ENE visible
07 Dec 9.3 08:15:35 60° NNE 08:15:35 60° NNE 08:24:14 10° E visible
07 Dec 9.1 10:13:53 27° WNW 10:20:20 82° NNE 10:30:09 10° ESE visible
08 Dec 11.3 05:56:51 10° ENE 05:56:51 10° ENE 05:56:53 10° ENE visible
08 Dec 9.6 07:55:09 51° NE 07:55:09 51° NE 08:02:30 10° ENE visible
08 Dec 9.1 09:53:27 34° WNW 09:58:36 81° NNE 10:08:28 10° ESE visible
09 Dec 10.0 07:34:44 41° ENE 07:34:44 41° ENE 07:40:47 10° ENE visible
09 Dec 9.1 09:33:02 44° WNW 09:36:53 79° NNE 09:46:46 10° ESE visible
09 Dec 9.6 11:32:14 10° WNW 11:41:43 50° SW 11:50:54 10° SSE visible
10 Dec 10.3 07:14:20 32° ENE 07:14:20 32° ENE 07:19:03 10° ENE visible
10 Dec 9.1 09:12:38 56° NW 09:15:10 77° NNE 09:25:03 10° ESE visible
10 Dec 9.5 11:10:56 12° WNW 11:20:04 52° SW 11:29:21 10° SSE visible
11 Dec 10.6 06:53:57 24° ENE 06:53:57 24° ENE 06:57:19 10° ENE visible
11 Dec 9.0 08:52:15 69° NNW 08:53:26 76° NNE 09:03:22 10° ESE visible
11 Dec 9.4 10:50:33 17° WNW 10:58:25 55° SW 11:07:47 10° SE visible
12 Dec 11.0 06:33:36 18° ENE 06:33:36 18° ENE 06:35:36 10° ENE visible
12 Dec 9.1 08:31:54 74° NNE 08:31:54 74° NNE 08:41:38 10° ESE visible
12 Dec 9.3 10:30:13 23° WNW 10:36:46 57° SW 10:46:13 10° SE visible
13 Dec 11.2 06:13:17 12° ENE 06:13:17 12° ENE 06:13:51 10° ENE visible
13 Dec 9.3 08:11:35 63° ENE 08:11:35 63° ENE 08:19:55 10° E visible
13 Dec 9.2 10:09:54 31° WNW 10:15:06 60° SW 10:24:38 10° SE visible
14 Dec 9.7 07:51:19 49° E 07:51:19 49° E 07:58:12 10° E visible
14 Dec 9.2 09:49:37 40° W 09:53:26 62° SW 10:03:03 10° SE visible
15 Dec 10.1 07:31:04 37° E 07:31:04 37° E 07:36:28 10° E visible
15 Dec 9.1 09:29:24 52° W 09:31:46 65° SW 09:41:26 10° SE visible
15 Dec 10.4 11:28:44 10° W 11:35:23 20° SW 11:41:56 10° SSW visible
